Wind_Speed
35 36 37 38 40 42 43 42 41 41 41 40 40 40 40 40 39 39 39 39 38 35 34 35 33 32 35 35 31 29 27 24 21 19 17 16 16 13 8 5 5 7 8 9 11 13 14 16 18 18 17 15 14 12 10 8 6 5 5 4 4 3 4 6 7 7 7 7 6 7 7 8 8 9 10 12 13 15 16 17 19 22 26 29 35 39
34 35 37 39 41 43 44 44 43 43 42 41 40 39 39 39 38 38 39 39 39 37 35 35 33 32 36 36 32 30 28 25 22 20 18 18 18 15 10 6 4 6 8 8 9 11 13 14 16 18 17 15 14 12 10 8 6 6 5 4 4 6 7 7 7 7 8 8 7 8 9 9 10 11 13 14 16 17 18 21 24 28 32 36 40 41
33 35 37 38 40 42 44 45 44 43 42 40 39 38 38 38 37 37 38 38 38 38 37 37 35 35 37 37 33 32 31 28 26 22 20 20 19 18 13 8 5 6 8 8 8 9 11 12 14 17 16 15 14 12 10 9 7 6 6 5 5 7 8 7 7 7 7 7 8 9 10 11 12 14 16 17 18 19 23 26 30 34 38 40 41 40
32 34 36 37 39 41 42 44 44 44 42 40 38 38 38 37 36 37 37 37 37 37 37 36 36 37 38 37 35 33 32 32 29 26 24 23 22 20 16 12 9 7 9 9 7 8 9 9 12 15 16 14 13 12 10 9 8 7 6 6 6 8 8 7 6 7 7 7 9 11 12 13 15 16 18 19 21 24 28 33 36 39 40 40 39 39
31 33 35 36 38 39 41 43 44 45 43 41 40 39 39 38 38 37 36 36 37 38 38 37 37 38 38 37 37 35 34 33 31 29 27 26 24 22 20 17 14 11 10 9 8 7 8 9 10 13 15 14 12 11 9 8 8 8 7 6 6 8 8 8 7 7 7 8 11 14 14 15 16 17 19 22 25 29 34 38 40 41 40 38 38 37
30 32 33 35 37 38 40 42 44 45 45 44 43 42 41 40 39 38 37 38 38 39 39 39 39 39 39 38 38 37 35 34 33 31 30 29 27 25 24 22 19 16 13 11 9 7 7 8 9 11 14 14 11 10 9 8 8 8 8 6 6 7 8 9 8 7 8 9 13 16 16 16 17 19 22 26 31 36 39 41 40 39 38 38 37 37
29 30 32 34 36 37 39 40 43 44 45 45 44 42 41 40 38 38 38 38 38 37 37 38 39 39 39 39 38 37 36 35 34 33 32 32 31 30 29 27 24 20 16 12 10 8 6 7 8 9 12 13 11 9 8 7 7 7 8 6 5 6 7 8 8 7 8 11 15 17 17 17 20 23 26 30 35 40 41 41 39 38 38 38 38 38
27 29 31 33 34 36 38 39 41 43 45 45 45 44 42 40 39 38 38 38 37 36 36 37 38 38 39 39 39 38 37 36 35 34 34 34 33 33 32 30 27 23 19 14 12 10 7 7 7 7 10 12 11 9 7 6 6 6 7 7 5 4 5 7 8 8 9 12 16 18 19 20 23 26 30 35 39 41 41 40 38 38 38 38 38 38
26 28 29 31 33 35 37 38 40 42 43 44 45 46 44 43 41 40 39 39 38 37 37 37 38 38 40 40 39 38 38 37 37 36 35 35 34 34 33 31 28 24 21 17 14 12 9 7 7 6 7 10 11 8 6 6 5 5 6 7 5 4 5 6 7 8 10 14 17 19 21 23 26 30 34 38 40 40 40 39 39 38 38 39 39 38
25 27 29 31 33 34 36 37 38 40 41 43 45 46 45 44 43 41 41 40 39 38 37 37 38 39 39 40 39 39 39 38 38 37 36 35 34 34 32 30 28 25 23 19 16 14 11 7 7 6 5 7 9 8 6 5 5 5 6 6 6 5 5 5 6 8 12 15 19 21 23 26 29 33 38 40 39 39 39 39 39 39 39 39 39 38
24 26 28 30 32 34 35 36 37 38 40 41 43 45 46 46 45 43 42 41 40 39 38 38 38 38 38 38 39 39 39 38 38 38 37 36 35 34 32 31 29 27 25 22 19 16 13 9 8 7 5 5 7 8 6 4 4 4 5 6 6 5 4 4 6 10 13 18 21 23 26 29 33 37 39 39 38 38 38 39 39 39 39 39 39 38
23 26 28 30 32 33 34 35 36 37 38 40 41 43 45 46 46 46 44 43 42 40 39 39 39 38 37 37 38 38 38 38 38 38 37 37 36 35 33 32 31 28 26 24 21 18 15 11 9 8 6 5 5 7 6 3 3 4 5 6 6 5 4 5 8 11 15 20 23 26 29 32 37 39 39 38 38 38 38 38 38 38 39 39 39 38
24 26 28 30 31 32 34 35 35 36 37 38 40 41 43 45 47 47 46 45 44 42 41 41 40 38 37 37 37 37 37 38 38 37 37 37 36 36 35 33 32 30 28 27 23 20 17 14 10 8 7 6 4 4 6 3 1 3 5 6 7 6 5 6 9 13 17 22 26 28 31 35 38 39 38 37 38 38 37 37 37 37 38 39 39 37
24 27 29 30 31 32 33 34 35 36 37 37 38 40 41 43 45 47 47 47 45 44 43 43 41 39 38 38 38 37 37 38 38 38 37 36 36 36 35 34 33 32 30 29 26 22 19 17 13 10 10 8 4 2 4 3 2 4 5 7 8 9 9 8 10 14 19 23 27 30 33 36 39 38 37 37 37 37 37 36 37 37 38 38 37 36
25 27 29 30 30 31 32 33 34 35 36 37 38 38 40 42 43 45 47 47 47 46 44 44 42 40 38 37 37 38 37 37 38 38 38 37 37 36 36 35 34 33 32 31 29 25 22 20 17 15 14 11 8 5 5 5 5 5 7 9 11 12 12 11 12 15 20 24 28 31 34 37 38 38 37 37 37 36 37 37 38 38 37 36 36 36
24 26 28 29 30 31 32 33 34 35 36 36 37 38 39 40 41 43 45 47 47 47 46 45 43 41 40 38 37 38 38 37 38 38 38 38 38 37 37 36 35 35 34 33 32 28 25 23 21 18 17 15 13 10 8 7 7 7 9 12 14 15 15 14 14 16 20 24 28 31 35 37 38 37 37 37 37 37 37 38 37 36 35 34 35 36
23 25 27 29 30 31 32 33 34 35 35 36 37 37 38 39 40 41 43 45 46 46 46 45 44 43 42 41 40 40 39 38 38 38 38 38 38 38 38 37 37 37 36 36 34 31 28 26 24 22 20 18 15 12 10 8 8 8 9 12 16 18 18 17 16 17 21 24 28 32 35 37 38 37 37 37 37 36 36 36 35 34 32 33 34 35
23 25 26 28 30 31 32 33 34 35 35 36 36 37 38 38 39 40 41 42 44 45 45 46 46 44 43 43 42 43 42 40 39 38 37 37 38 39 39 39 39 38 38 38 37 34 31 29 27 25 22 20 17 15 12 9 9 10 9 11 15 18 19 20 19 19 21 25 29 32 35 37 38 37 37 36 35 35 35 34 33 32 32 33 34 35
23 25 26 28 29 31 32 33 34 35 36 36 36 37 37 37 38 39 40 41 42 44 45 46 46 45 44 44 44 45 44 42 40 38 38 38 38 39 40 40 40 39 39 39 39 37 34 31 29 27 25 22 21 19 14 10 10 12 12 12 14 17 19 21 21 20 21 24 28 32 36 37 38 37 36 35 34 34 33 32 31 31 31 33 34 35
24 26 27 27 28 30 31 33 34 35 36 36 36 36 36 37 37 38 39 40 41 42 44 44 45 46 47 46 46 45 44 43 42 40 39 38 38 39 39 40 40 40 40 39 39 39 37 35 32 30 27 26 24 21 17 13 11 13 15 14 15 18 20 21 22 22 23 26 29 32 35 37 37 37 36 34 33 32 31 31 30 30 32 33 34 35
24 26 28 28 28 29 30 32 34 35 36 37 37 37 37 37 37 38 38 39 40 41 42 43 44 46 47 46 46 46 45 45 44 42 41 40 39 39 39 40 41 41 41 41 41 41 40 38 36 33 31 29 27 24 20 16 13 14 16 16 16 19 21 23 24 24 25 28 31 33 36 37 37 37 35 33 32 31 30 29 29 30 32 34 35 36
25 26 28 29 28 28 30 32 34 35 36 37 37 38 38 38 38 38 38 39 39 40 41 41 42 44 45 46 46 46 46 46 45 45 43 42 40 40 40 41 41 42 42 42 42 42 42 41 39 37 34 32 29 27 23 19 16 15 16 18 20 21 23 24 26 26 27 28 32 34 36 37 38 37 35 33 31 30 29 29 29 30 33 34 35 36
27 26 27 30 30 29 30 30 32 35 36 37 38 39 40 39 39 39 39 39 39 40 40 40 41 42 44 44 45 46 47 47 47 46 45 44 42 41 41 41 42 43 43 44 44 44 44 43 42 40 37 34 32 30 27 24 21 17 18 21 23 23 24 26 27 29 30 30 31 33 35 36 37 36 35 33 30 28 28 28 30 31 33 34 35 35
28 27 27 29 31 30 29 29 31 34 36 37 39 40 40 40 40 40 40 40 40 40 40 40 40 41 42 43 44 45 47 47 48 47 47 46 45 44 43 42 42 43 45 45 45 46 46 46 45 43 40 37 35 33 30 27 24 21 20 21 23 25 26 27 29 31 32 32 31 32 33 33 34 33 33 31 29 28 28 28 30 32 33 34 35 35
30 29 28 29 30 31 30 30 31 33 35 37 39 40 40 41 41 41 41 41 41 41 41 41 41 41 41 42 44 45 46 48 48 48 48 48 47 46 45 44 44 44 45 46 47 47 48 48 47 45 43 40 38 36 34 30 27 24 22 21 23 25 27 29 31 32 33 34 33 32 31 31 31 30 30 30 29 28 28 29 30 32 33 34 34 34
33 32 30 29 30 32 32 32 32 34 36 37 39 40 41 41 42 42 41 41 41 41 41 41 41 41 41 42 43 44 46 47 48 49 49 49 49 49 48 46 45 45 45 47 48 48 49 49 49 47 45 43 41 39 38 35 32 28 26 24 23 25 28 30 32 34 35 35 35 34 32 30 29 28 28 28 28 29 29 30 31 31 32 33 34 34
34 34 33 32 32 33 35 34 34 35 36 37 39 40 41 42 42 42 42 42 42 41 41 42 42 41 41 42 43 44 45 46 47 48 49 50 50 50 49 48 47 46 46 46 48 49 50 51 51 50 48 46 44 43 41 39 37 33 31 29 26 26 28 30 32 34 36 36 36 36 34 32 30 29 28 28 28 29 31 32 32 32 32 33 34 34
34 35 35 35 34 34 36 36 35 34 35 36 38 40 41 42 43 43 43 42 42 42 42 42 42 41 41 42 43 43 44 46 47 48 49 50 51 51 51 50 49 48 47 47 48 49 51 53 53 52 50 48 47 46 44 42 40 38 35 33 30 28 29 30 32 33 35 37 38 37 36 34 32 31 30 29 29 29 31 32 33 33 33 33 34 34
34 35 37 37 36 35 35 36 36 36 36 37 38 39 41 42 43 43 43 42 42 43 43 43 42 41 41 42 43 43 44 45 46 47 49 50 51 52 52 52 51 50 49 48 48 50 52 54 55 55 53 51 50 49 47 45 43 41 39 37 34 32 31 30 32 34 36 37 38 38 37 36 34 33 33 32 31 30 31 32 33 34 34 34 34 34
34 35 36 38 38 37 35 36 37 38 38 38 39 40 40 41 42 42 42 42 42 42 43 43 42 42 41 42 42 43 44 45 46 47 48 50 51 52 53 53 53 52 51 50 50 50 52 55 57 57 57 54 52 51 51 48 46 45 43 40 38 36 34 32 31 33 36 37 37 38 37 37 36 35 35 35 34 33 32 32 33 34 35 35 34 34
36 35 35 37 39 39 38 37 37 38 39 39 39 40 40 40 40 41 41 42 42 42 42 41 42 42 41 41 42 43 43 44 46 46 48 49 50 51 52 53 54 53 53 52 51 51 52 54 57 59 59 58 55 54 53 52 50 48 46 44 42 39 37 35 33 33 36 38 38 38 38 38 38 37 37 37 36 35 35 35 35 35 35 35 34 34
38 37 35 35 37 39 41 39 38 38 39 40 40 40 40 39 40 41 41 41 42 42 41 41 41 42 41 41 42 43 43 44 45 46 47 48 49 51 52 53 54 55 54 54 53 53 53 54 57 60 61 61 59 57 56 55 53 52 50 48 46 43 41 39 37 35 36 37 38 39 40 40 40 39 39 39 38 38 38 37 37 38 37 37 36 35
38 38 38 37 36 40 42 42 40 38 37 39 41 42 42 42 42 42 41 41 41 41 41 42 42 42 42 42 43 43 43 44 45 46 46 47 48 50 51 53 54 55 55 55 55 55 55 55 57 59 62 63 63 61 59 57 56 55 53 50 49 47 44 42 41 39 37 36 37 39 41 41 41 41 40 40 40 40 40 40 40 40 40 40 39 38
39 39 41 40 38 40 43 43 43 40 38 39 41 41 43 44 44 43 43 42 42 41 42 42 42 43 43 43 43 44 44 45 46 46 46 47 48 49 51 52 53 54 56 56 57 57 57 57 57 59 61 64 65 64 62 61 59 57 56 53 51 50 48 46 44 42 40 38 36 38 40 42 42 42 41 41 40 40 40 41 42 42 42 42 42 42
40 40 43 43 41 41 43 43 42 41 43 43 41 39 41 42 43 44 43 43 42 42 41 41 42 43 44 44 44 45 45 45 46 47 47 47 48 49 50 51 53 54 55 56 57 58 59 59 59 60 61 63 65 66 66 64 62 60 58 57 54 52 51 49 47 46 44 41 38 37 38 40 42 42 42 42 41 41 41 41 42 42 43 43 43 43
40 40 43 45 44 44 44 43 42 44 47 47 43 41 41 40 40 41 41 41 41 40 39 39 40 41 42 42 42 43 44 45 47 47 47 47 47 48 50 51 51 52 54 55 57 59 60 60 61 61 62 63 65 67 68 68 66 63 61 59 58 55 54 53 51 49 47 45 43 40 39 39 41 42 43 42 42 42 42 42 42 42 42 42 43 43
40 41 43 45 46 47 46 45 45 46 48 48 46 46 44 42 40 40 39 39 38 37 37 37 38 39 39 39 39 40 40 42 44 46 46 46 47 48 49 50 50 51 52 54 56 58 60 61 62 62 63 64 65 67 68 69 69 67 64 62 61 59 57 56 54 52 50 48 46 44 42 41 40 41 42 42 42 42 42 42 41 40 40 41 41 42
41 42 44 46 47 48 49 49 47 46 48 49 50 50 48 46 44 42 40 39 39 38 39 38 38 38 38 38 38 39 39 41 42 43 44 45 46 47 48 48 49 50 51 52 54 57 59 61 62 63 64 65 66 67 68 70 71 70 68 65 63 63 61 59 57 55 53 52 50 48 46 44 43 41 40 40 41 42 42 42 41 40 40 40 41 42
42 43 44 47 48 49 51 53 51 48 49 51 52 52 50 48 47 45 43 43 43 43 42 42 41 41 41 40 40 40 41 42 42 42 42 44 45 46 47 47 47 48 49 51 53 55 58 60 62 64 65 66 67 68 69 70 72 72 71 68 66 65 64 62 60 58 57 55 53 51 50 48 46 44 42 41 41 41 42 41 41 41 41 41 42 42
41 42 44 46 47 50 53 55 54 52 51 51 52 52 50 49 48 47 47 47 47 46 45 46 46 45 44 44 44 44 45 45 44 43 44 45 47 48 48 48 48 48 49 50 52 54 56 59 61 63 65 67 68 69 70 71 71 73 73 72 69 68 67 65 63 62 60 58 56 55 53 51 50 48 46 44 42 41 40 40 40 40 41 41 41 40
41 42 43 43 45 50 54 55 56 57 55 51 50 51 50 48 47 48 49 48 46 45 46 48 48 47 46 46 46 46 46 46 44 43 44 46 47 48 49 49 49 49 49 50 52 53 56 58 60 62 64 66 68 70 71 71 72 73 74 74 73 71 70 68 66 65 63 62 60 58 56 54 53 52 50 48 45 43 42 42 41 41 42 42 42 41
42 42 42 42 43 49 53 54 56 58 57 53 51 49 49 49 49 49 47 44 42 43 45 48 47 46 46 46 46 45 45 44 42 41 42 44 45 45 46 47 47 46 47 49 51 53 55 57 59 61 64 66 68 70 71 72 73 73 74 76 76 75 73 71 70 68 65 64 63 61 59 57 56 54 53 51 49 48 47 47 46 46 45 45 44 43
41 41 43 41 41 46 51 53 54 56 57 57 53 47 46 48 50 48 43 40 40 42 45 46 45 44 44 44 43 43 42 40 39 39 40 41 41 42 43 43 43 44 44 46 48 50 53 55 57 60 63 65 67 69 71 73 74 74 74 76 77 78 77 75 73 71 68 66 64 63 62 60 58 57 56 55 53 52 51 51 50 49 49 48 47 46
41 42 43 40 39 43 48 50 50 54 59 59 51 44 44 46 47 46 43 39 38 40 42 44 42 41 41 41 41 40 39 37 36 36 37 37 37 39 40 40 41 41 42 43 45 47 49 52 55 58 61 64 66 68 70 72 74 75 75 76 77 79 80 78 76 75 73 70 67 65 64 63 61 59 58 57 56 55 55 54 53 51 51 52 50 49
42 43 43 40 38 41 45 48 50 53 56 55 47 44 45 45 45 45 42 38 36 37 40 41 39 38 39 39 39 38 36 34 34 34 34 34 35 37 38 38 38 39 40 41 42 44 46 48 51 54 58 61 65 67 69 71 73 75 76 76 77 79 81 81 79 77 76 74 72 69 66 65 64 63 61 59 58 58 58 57 55 54 54 54 54 53
42 43 43 39 38 40 44 49 54 54 53 50 48 47 46 43 43 44 40 36 34 35 37 38 38 38 38 39 39 36 33 32 32 32 32 33 33 34 34 35 36 37 38 39 41 42 44 45 48 51 53 57 61 64 67 69 71 74 76 77 78 78 80 82 82 80 78 76 75 73 70 68 67 66 65 63 61 60 59 58 57 56 56 57 56 55
42 44 43 39 37 39 41 46 53 55 52 50 49 47 44 41 41 41 39 35 32 32 34 36 37 38 39 39 38 35 32 31 31 31 31 31 30 30 30 30 31 32 34 36 38 40 42 44 46 48 50 53 56 60 64 67 69 72 75 77 78 79 80 81 82 82 80 78 76 75 73 71 70 69 68 67 65 63 61 60 59 58 58 58 57 55
43 44 42 37 36 37 40 44 50 52 52 51 50 47 43 40 40 40 38 34 30 30 33 35 37 38 39 38 36 33 31 31 30 30 29 27 26 26 25 24 24 25 27 29 32 35 38 40 43 45 47 49 52 55 60 64 67 70 73 75 78 80 80 81 82 82 82 81 79 77 75 73 72 71 70 69 68 66 64 63 62 61 60 58 57 55
44 41 37 34 34 35 39 44 48 50 51 50 48 45 41 39 39 39 37 33 30 31 33 36 38 38 38 37 35 33 32 31 30 29 27 25 24 22 21 19 19 18 19 21 24 27 31 35 38 41 43 45 48 51 55 59 63 67 70 73 76 79 80 81 81 81 81 82 82 80 77 74 73 72 71 71 70 69 67 65 64 63 63 61 60 57
43 39 34 32 33 34 37 41 45 47 47 44 42 42 41 39 39 39 37 34 33 33 35 37 38 38 37 36 35 33 32 31 30 29 27 24 23 21 19 17 16 15 14 15 16 19 22 26 30 34 37 40 43 47 50 54 58 63 67 71 74 76 79 81 81 81 81 82 83 83 80 77 74 73 73 72 72 71 69 67 65 63 63 64 63 60
41 37 34 33 33 35 37 39 44 49 48 42 40 41 40 40 40 40 37 35 34 33 35 36 37 37 37 37 35 34 33 32 31 29 27 25 23 21 19 17 16 14 13 12 12 13 15 17 21 25 29 33 37 40 44 48 52 57 62 67 71 74 76 79 81 82 82 83 84 84 83 81 78 76 75 74 73 72 70 68 66 64 63 64 65 63
Wind_Direction
237 235 233 230 227 226 227 227 227 228 227 227 227 227 229 229 228 228 228 228 229 230 231 231 232 236 238 234 230 229 229 230 232 231 230 231 235 236 235 251 286 307 314 328 340 352 1 4 9 11 10 14 21 29 39 43 43 46 40 44 66 87 101 101 100 103 103 106 124 143 152 153 149 145 142 142 142 142 139 134 130 130 131 133 132 130
235 233 231 229 226 224 224 225 225 227 227 227 227 227 228 229 228 228 227 227 228 228 229 230 228 231 238 238 231 228 227 226 228 229 227 224 229 233 232 244 282 306 307 317 335 348 357 359 3 10 11 13 20 27 38 49 52 56 61 66 83 104 109 97 85 86 90 94 109 130 139 140 138 136 135 135 135 134 131 129 130 132 133 134 132 130
233 232 231 229 228 226 225 225 225 227 228 228 228 228 229 229 228 228 227 227 227 227 227 228 226 226 234 238 234 228 226 226 228 230 225 221 225 229 233 244 269 296 299 305 326 341 350 354 356 6 12 14 19 26 36 50 61 66 70 78 95 111 113 100 83 79 83 92 108 125 132 132 132 133 133 133 131 130 130 130 132 134 134 133 132 131
232 231 231 229 228 227 226 225 225 226 227 227 227 227 228 228 227 227 228 227 227 226 226 226 227 227 230 236 235 231 228 227 229 230 225 220 221 226 234 245 260 279 288 294 310 329 339 345 351 360 9 14 19 26 34 48 62 71 74 85 104 114 113 104 91 80 75 90 115 125 127 127 128 132 132 131 130 129 131 132 134 134 134 133 133 133
232 230 230 229 228 227 225 224 224 224 224 224 224 224 225 225 224 224 225 225 225 225 224 224 226 227 228 231 233 232 229 229 229 227 225 222 221 225 233 242 254 267 276 281 289 310 324 334 346 355 4 13 20 25 32 44 59 70 74 88 107 111 107 100 92 81 73 93 122 128 127 127 128 132 133 131 131 131 133 134 134 135 134 134 134 135
232 230 229 229 228 227 225 224 223 223 223 222 223 224 224 225 225 224 223 224 224 224 223 223 224 225 226 227 230 231 230 229 228 225 224 224 224 226 233 240 249 258 264 268 273 286 307 320 337 351 358 8 19 24 31 41 53 66 72 84 110 109 100 97 90 78 78 103 127 130 129 128 129 132 133 133 133 134 134 135 135 136 136 136 137 135
233 231 229 229 228 227 226 224 223 222 222 222 222 224 225 226 226 226 225 226 227 226 225 225 226 227 227 227 228 229 229 228 227 225 224 225 227 230 235 240 246 252 254 255 259 267 287 306 326 345 353 2 14 22 28 39 51 60 67 76 105 113 100 97 91 80 89 114 129 132 129 128 130 133 134 135 136 136 136 137 137 138 138 138 137 136
232 231 230 229 228 227 226 225 224 223 222 221 221 222 223 224 225 226 226 227 227 226 225 225 226 227 228 228 228 229 228 228 227 225 224 226 228 232 236 240 244 248 247 245 248 255 270 290 311 335 346 355 8 18 26 35 50 62 64 66 88 120 112 101 93 89 100 121 132 133 131 130 132 135 136 137 138 138 138 139 140 140 140 139 138 136
230 229 229 228 228 227 226 225 224 223 222 222 221 221 221 222 223 224 226 227 227 226 225 225 225 226 226 227 227 228 228 227 227 225 225 225 227 231 234 238 241 243 242 239 240 245 254 274 292 316 335 347 0 12 24 33 47 66 69 62 71 106 119 109 98 100 113 128 135 137 135 134 135 137 139 140 140 140 140 141 142 142 141 140 138 137
230 228 227 227 227 227 226 225 224 224 223 222 221 221 221 222 223 223 225 226 227 228 227 227 227 227 227 226 226 227 227 226 226 226 225 225 226 229 231 234 236 237 237 235 234 236 241 257 275 287 314 338 354 5 18 33 46 70 78 68 72 95 110 111 109 116 125 133 138 140 138 137 138 140 141 142 142 142 143 143 144 144 143 141 139 137
229 227 226 226 226 225 225 224 224 224 224 223 222 221 221 221 222 223 224 225 226 228 228 228 229 228 228 228 227 227 228 227 227 226 225 225 225 226 228 229 231 231 232 233 232 233 233 238 256 270 291 324 346 359 8 29 51 76 89 81 80 88 96 109 120 127 134 138 141 143 142 141 142 143 144 144 144 145 145 146 146 145 144 142 140 138
230 227 226 225 225 225 224 224 223 223 223 222 222 221 221 221 221 222 223 224 225 226 227 228 229 229 229 229 228 228 228 229 229 228 227 226 225 225 226 226 227 227 228 229 229 229 228 226 239 255 273 302 331 353 357 8 56 83 102 99 93 88 87 115 127 132 139 142 144 146 146 145 146 146 147 147 147 147 148 148 148 147 145 143 141 139
231 227 226 225 225 225 224 223 222 222 223 222 222 222 222 222 222 222 222 223 224 225 226 227 228 228 229 230 229 228 227 228 228 229 229 228 227 226 226 225 225 224 224 226 225 222 221 221 226 239 256 272 298 348 343 331 87 102 112 114 110 102 103 121 130 135 141 144 146 148 148 149 149 149 149 149 149 149 150 150 150 148 146 144 142 140
232 228 227 225 224 225 224 224 223 222 222 221 221 221 221 222 222 222 222 222 223 224 225 226 227 227 228 230 230 228 227 227 226 227 227 228 228 228 227 225 224 222 221 223 223 217 215 216 215 217 232 247 251 291 311 286 185 134 128 129 125 121 120 124 129 136 142 145 147 149 150 151 151 151 151 151 151 151 151 151 151 149 148 146 144 142
235 231 228 226 224 224 224 224 223 222 221 220 220 220 221 222 222 223 223 222 223 224 225 226 227 227 227 229 231 230 228 227 226 226 225 224 225 226 227 226 224 222 220 221 221 215 211 213 212 209 215 224 220 220 244 237 195 162 147 143 138 133 130 126 128 137 143 146 149 150 152 153 154 153 153 153 153 152 152 151 151 150 149 148 147 145
240 235 231 227 225 223 223 223 223 222 221 220 219 219 220 221 221 223 223 223 223 224 225 226 226 227 227 228 231 231 230 228 227 226 224 223 223 223 224 225 224 222 220 219 219 214 209 210 212 211 211 214 212 212 220 218 198 180 164 156 150 145 140 134 130 137 143 147 150 152 154 155 156 155 155 155 154 153 153 152 152 152 152 152 150 148
242 239 234 230 227 224 223 223 222 222 221 220 219 218 219 220 220 222 223 223 223 223 225 226 225 225 226 227 230 231 231 229 228 226 225 223 223 222 221 222 222 221 219 217 217 214 208 208 211 212 213 214 213 211 214 209 197 190 181 168 159 154 149 144 138 141 146 150 153 154 156 158 158 158 157 157 157 156 155 155 156 157 157 156 154 151
243 240 236 232 229 226 224 223 222 222 222 221 220 219 218 219 219 221 222 223 223 223 224 225 224 224 225 227 228 230 231 230 228 227 226 224 223 222 221 221 220 219 218 216 215 214 210 208 210 213 214 214 213 212 210 206 195 188 186 179 168 160 156 151 146 145 148 152 155 157 159 160 160 160 160 160 161 160 160 161 162 163 162 160 157 153
245 241 238 233 231 229 225 224 223 222 221 221 220 219 218 218 218 219 220 221 222 222 223 224 224 223 223 225 226 229 231 231 230 228 227 225 223 222 221 221 220 219 218 216 215 214 212 209 209 212 214 213 214 212 205 202 198 186 181 182 178 169 162 156 151 149 151 154 157 160 161 162 163 162 163 164 164 164 164 165 166 166 165 163 160 156
246 242 239 236 233 231 228 225 224 222 221 220 220 219 218 218 217 218 219 220 220 221 222 222 223 223 222 223 225 227 229 231 230 229 228 226 224 222 221 221 220 219 219 217 215 215 214 210 208 210 212 213 216 214 203 198 197 187 181 183 185 178 168 161 157 155 156 157 158 161 163 164 165 166 166 166 167 167 168 168 169 168 167 165 162 158
248 242 240 237 235 234 232 228 225 224 222 220 219 218 217 217 216 217 218 218 219 220 220 220 222 223 223 223 224 226 228 229 230 230 229 227 225 223 221 221 220 219 218 217 216 215 216 212 208 208 211 212 216 215 206 198 197 191 183 185 191 186 175 168 163 161 160 160 161 162 165 167 168 169 170 170 170 171 171 171 171 171 169 167 164 162
249 244 240 238 234 232 233 230 228 226 223 221 219 217 216 215 215 215 216 217 217 219 219 218 220 222 222 222 224 225 227 228 229 229 229 229 227 224 222 220 219 219 218 217 216 215 216 214 209 208 210 211 213 214 207 200 199 194 187 189 194 191 183 175 168 165 164 164 165 166 168 169 171 172 173 173 174 175 175 175 174 173 171 169 168 166
249 246 242 239 235 231 230 230 230 228 226 223 220 218 217 215 214 214 215 215 216 217 218 217 218 220 220 220 222 223 225 227 228 229 229 229 228 226 223 221 219 218 217 217 216 215 216 215 211 208 209 210 211 213 210 203 198 195 194 194 194 192 188 181 174 170 168 168 169 170 172 173 174 175 176 177 178 179 179 178 177 175 174 172 171 170
248 246 242 240 238 234 231 228 229 229 228 225 223 220 219 216 214 214 214 215 215 215 216 216 217 218 219 219 220 221 223 225 227 228 229 229 229 227 225 222 220 218 217 216 215 215 215 215 212 209 209 210 210 212 211 205 199 196 199 199 195 193 191 187 182 176 173 172 174 175 176 178 179 179 180 181 182 183 182 181 180 178 177 175 175 175
246 245 243 239 237 235 232 229 227 228 227 226 224 222 219 217 216 215 215 215 216 216 216 216 216 217 217 218 218 219 221 223 225 226 227 228 229 228 227 224 221 219 217 216 215 214 214 215 214 211 209 209 210 210 210 208 202 200 202 203 200 196 194 192 188 183 179 178 179 180 180 182 185 186 186 187 186 185 185 184 183 181 180 179 180 179
244 243 242 241 236 233 232 229 227 226 224 223 223 222 220 218 217 216 215 215 216 217 217 216 216 216 217 218 218 218 220 222 223 225 226 227 228 228 228 226 223 221 219 217 215 214 213 214 215 213 210 209 209 210 211 210 207 205 205 205 204 201 198 196 193 190 187 185 184 185 186 187 190 192 193 194 192 189 187 187 186 185 184 184 185 183
244 242 241 241 238 235 231 229 229 228 225 222 222 221 220 219 218 217 216 216 216 217 218 218 218 217 217 218 218 218 219 221 222 224 225 227 228 228 228 227 226 223 220 218 216 214 213 214 215 214 212 210 210 210 211 212 211 210 208 206 205 205 203 201 199 196 194 192 190 190 191 191 192 194 197 199 197 194 191 190 189 188 188 189 189 187
245 243 241 241 241 239 235 231 230 230 228 225 224 222 221 220 219 218 218 217 217 218 219 220 220 218 219 220 219 219 220 221 222 222 224 225 227 228 228 228 227 225 222 219 218 215 214 213 214 215 213 211 211 211 211 212 213 212 210 207 205 207 207 204 202 201 201 200 197 195 195 195 194 195 197 199 200 198 196 193 192 191 192 193 193 191
247 244 242 241 241 242 240 235 231 230 228 226 225 224 223 222 221 220 219 219 219 219 220 221 221 220 221 222 221 220 221 221 222 222 223 224 225 227 228 228 227 226 224 221 219 217 215 214 214 215 215 213 212 212 212 212 213 213 211 208 207 207 209 207 204 203 205 205 203 201 200 200 199 198 197 197 198 199 199 197 196 194 195 197 197 196
250 245 242 240 240 241 242 239 234 231 230 228 227 226 225 224 223 222 221 221 221 221 222 223 223 222 221 223 224 223 223 223 223 223 223 224 224 226 228 229 228 227 225 223 220 218 216 215 214 215 216 215 213 212 212 212 213 214 212 210 208 208 210 210 207 205 206 207 206 206 206 205 203 201 200 198 198 197 198 200 200 199 199 201 201 201
253 248 243 240 239 239 240 241 238 234 232 231 230 229 228 227 226 226 224 223 223 224 224 225 226 225 223 224 226 226 225 226 225 224 225 225 225 225 226 228 228 228 226 224 222 219 217 216 215 215 216 216 215 213 213 213 213 214 214 212 211 210 211 211 209 207 208 208 207 207 208 208 207 206 204 202 200 198 198 199 201 202 202 204 205 205
254 252 246 241 239 238 237 238 239 237 235 233 232 232 232 231 230 229 228 227 225 225 226 227 228 229 227 227 228 228 228 228 228 227 226 226 226 226 226 226 228 228 228 226 224 222 219 218 217 216 216 217 217 215 214 214 214 215 216 215 214 213 212 213 212 210 210 209 207 207 208 209 209 210 209 207 205 203 200 200 201 202 204 205 208 209
255 254 251 245 240 239 236 233 235 237 237 237 236 234 233 233 232 232 231 231 229 227 227 228 229 231 231 231 231 230 230 230 230 229 228 228 228 227 226 226 227 228 228 227 226 224 221 219 218 217 217 217 217 216 215 215 215 215 216 216 215 215 214 214 214 213 212 211 209 208 209 210 211 212 212 211 209 208 206 204 203 203 204 205 208 210
253 254 254 249 243 242 238 232 232 234 235 237 237 236 235 235 235 235 234 234 233 231 230 230 230 232 232 233 233 234 233 233 233 231 230 230 230 229 228 227 226 227 227 227 227 225 223 221 219 218 218 217 218 217 216 216 216 216 216 216 216 215 215 215 216 215 213 213 211 210 211 212 212 212 213 213 212 211 211 210 208 207 206 206 208 211
252 253 254 253 248 245 240 233 231 232 232 234 235 235 237 237 237 237 237 237 237 235 234 233 232 232 233 233 234 235 235 236 236 234 232 231 231 231 230 229 228 227 227 227 227 226 225 223 221 219 219 218 218 218 217 217 216 217 217 217 216 216 215 216 217 217 215 214 213 212 212 214 214 214 214 214 214 214 214 214 213 212 211 211 212 214
251 251 253 254 253 250 243 235 232 232 233 233 233 233 235 237 237 238 239 238 238 237 236 234 233 232 232 232 232 233 233 235 236 236 235 233 232 232 232 231 229 228 228 228 228 227 226 225 223 221 220 219 219 219 218 218 217 217 217 217 217 216 216 216 218 218 217 215 214 213 214 215 215 216 216 215 215 215 216 216 216 215 216 216 217 219
249 249 250 252 253 253 249 241 234 232 233 233 231 232 233 234 235 236 238 239 238 237 236 234 232 231 230 229 229 229 230 232 235 236 237 235 234 234 233 232 231 230 229 229 229 228 227 226 225 223 221 220 220 220 219 219 218 217 217 217 217 217 217 217 218 219 218 217 215 215 215 216 216 217 217 217 217 217 218 218 217 217 218 220 221 223
246 247 249 250 251 253 253 248 240 233 232 234 232 231 231 232 234 234 235 238 239 239 238 237 235 234 232 230 230 230 230 232 234 236 237 238 237 236 235 234 233 232 231 230 230 230 229 228 227 225 223 221 220 220 220 220 219 218 217 217 218 218 218 218 218 219 219 219 217 216 216 217 217 217 217 217 218 219 220 219 219 218 219 220 223 224
246 247 249 251 251 252 252 252 248 239 235 234 232 230 230 231 234 235 235 238 240 240 241 242 241 240 238 237 236 235 235 235 235 237 239 241 242 241 239 237 235 234 233 232 232 231 231 229 228 227 225 223 221 221 221 221 220 219 218 217 217 218 218 218 218 219 220 220 219 218 217 217 218 218 217 216 217 219 220 220 220 220 220 221 223 225
251 250 251 252 252 251 250 251 251 247 241 235 231 230 229 230 233 235 236 238 240 242 244 245 246 245 245 244 243 242 241 241 240 240 242 244 245 245 244 242 239 238 237 235 234 233 232 231 229 228 227 225 223 222 221 221 221 220 219 218 218 218 218 219 219 219 220 221 221 220 219 219 219 219 218 217 217 217 218 219 219 219 220 221 223 224
257 255 254 253 253 251 250 248 249 249 246 239 232 228 228 228 231 234 235 237 240 242 244 246 246 247 248 247 247 246 246 246 245 245 245 246 246 246 246 245 243 241 239 238 236 235 233 232 231 230 228 227 225 223 222 222 222 221 220 219 218 218 218 219 219 220 221 221 221 221 221 220 221 221 220 219 218 218 219 219 219 220 221 222 224 226
262 260 258 255 253 252 249 246 245 247 247 244 236 228 225 226 229 231 234 236 238 239 241 244 246 247 248 248 248 248 248 247 247 246 245 245 245 245 245 245 244 242 241 239 238 236 235 233 231 230 229 228 227 225 223 222 222 222 222 220 219 219 219 219 220 220 221 221 222 223 223 222 223 222 222 221 220 220 221 221 222 223 225 226 228 229
265 265 262 258 255 252 248 245 243 243 245 245 239 229 225 226 227 230 232 233 234 236 240 244 246 246 246 247 246 247 246 245 245 244 243 243 244 244 244 244 243 242 240 239 237 237 236 234 232 231 230 229 228 226 225 223 222 222 223 222 221 220 220 220 221 221 222 222 223 224 224 224 224 224 224 224 223 223 224 225 226 227 229 230 232 232
266 267 266 263 258 250 244 242 240 238 240 242 237 229 227 227 226 228 229 229 231 235 239 243 244 244 244 244 245 245 244 243 241 240 240 240 241 242 242 243 243 242 241 240 238 237 236 235 233 232 230 229 229 228 226 225 223 223 223 223 222 222 222 222 222 223 223 223 224 225 226 226 225 225 225 225 225 226 227 227 228 229 232 233 234 235
268 269 268 266 258 247 239 237 236 234 237 238 235 231 231 229 226 227 227 226 229 233 237 241 242 241 241 243 244 244 242 239 236 234 233 234 236 239 241 242 243 243 242 241 240 238 237 236 235 234 232 230 229 229 228 226 225 224 223 223 223 224 223 224 224 224 225 225 225 226 227 228 227 226 226 226 226 228 229 229 229 230 233 235 236 237
271 272 272 267 256 244 236 233 233 233 235 236 234 233 232 229 226 226 224 224 227 231 234 237 239 239 240 242 243 243 239 232 228 226 228 231 235 238 241 243 243 243 242 241 239 238 237 236 235 235 234 232 231 230 229 228 226 225 224 223 223 224 224 225 225 225 225 227 227 227 227 228 229 228 227 226 227 229 230 231 231 231 233 236 237 238
273 275 274 267 253 243 236 231 231 232 232 233 233 233 230 227 226 225 223 223 227 229 231 233 234 236 238 240 241 239 231 223 220 222 226 231 234 238 241 243 244 244 242 240 239 237 236 235 235 234 234 233 233 231 230 229 228 227 226 224 224 224 225 225 226 225 225 226 227 228 228 228 229 229 228 227 228 229 231 231 232 232 233 235 237 238
275 275 272 262 250 242 235 230 228 228 228 230 231 231 228 225 225 224 222 222 226 229 228 229 231 232 235 237 236 229 219 214 217 221 224 227 230 233 236 239 241 243 242 241 239 237 236 236 235 234 233 233 233 232 231 230 229 228 227 226 225 225 225 225 226 226 225 225 226 228 229 229 228 229 230 230 230 230 231 232 233 233 234 236 237 239
274 272 265 255 246 241 234 228 226 224 225 227 229 228 226 224 224 223 221 222 227 229 227 227 229 231 232 232 227 217 210 211 214 216 217 219 221 224 226 229 232 237 239 240 239 238 237 237 236 236 235 234 233 233 232 231 230 229 228 228 227 226 225 226 226 226 226 225 225 226 228 229 229 229 230 231 232 232 232 232 233 234 235 236 237 238
271 266 258 249 244 239 233 227 223 221 222 225 227 226 225 224 224 222 221 223 227 227 226 227 229 229 228 224 216 209 207 209 209 209 210 212 213 214 216 218 220 225 229 233 235 237 237 237 237 237 237 236 234 234 233 232 231 230 229 229 229 228 227 226 226 227 226 225 225 225 226 228 229 229 230 231 232 234 234 234 234 235 237 238 239 239
269 262 253 245 241 236 229 223 220 219 219 220 222 223 222 222 223 221 220 223 226 225 225 227 228 225 221 215 208 205 205 205 204 205 207 209 210 211 211 212 215 218 221 223 226 230 234 237 238 238 238 238 236 235 234 233 232 232 231 230 230 229 229 228 227 227 227 226 225 225 226 226 228 229 231 232 233 234 235 236 237 238 239 239 239 239
Height
10882 10885 10888 10891 10894 10895 10897 10900 10903 10904 10907 10910 10912 10916 10917 10920 10924 10927 10930 10932 10935 10938 10941 10943 10946 10947 10946 10949 10951 10953 10954 10956 10958 10960 10961 10962 10962 10963 10963 10964 10963 10963 10962 10961 10960 10958 10956 10955 10954 10952 10950 10948 10946 10944 10942 10941 10941 10941 10940 10939 10938 10938 10937 10936 10936 10935 10934 10934 10932 10932 10931 10931 10931 10931 10931 10932 10932 10934 10935 10936 10936 10937 10938 10940 10941 10942
10877 10879 10882 10884 10887 10889 10891 10895 10898 10900 10903 10906 10909 10912 10914 10916 10920 10923 10925 10928 10930 10934 10938 10940 10944 10946 10944 10945 10948 10950 10951 10954 10955 10957 10959 10960 10961 10961 10962 10962 10962 10962 10962 10961 10960 10958 10957 10956 10954 10953 10951 10948 10947 10945 10943 10942 10942 10941 10941 10940 10939 10938 10938 10937 10937 10936 10935 10934 10933 10932 10932 10931 10931 10931 10932 10932 10933 10934 10936 10937 10938 10939 10940 10942 10943 10944
10872 10874 10876 10879 10882 10884 10887 10891 10894 10896 10899 10903 10906 10909 10910 10913 10916 10918 10921 10924 10926 10930 10933 10936 10939 10942 10941 10941 10944 10946 10949 10951 10953 10955 10957 10958 10959 10960 10960 10961 10961 10961 10961 10961 10959 10958 10957 10956 10955 10953 10951 10949 10948 10946 10945 10943 10942 10942 10942 10941 10940 10939 10939 10938 10938 10937 10936 10934 10933 10933 10932 10932 10932 10932 10932 10933 10934 10936 10937 10938 10939 10941 10942 10944 10946 10947
10868 10870 10872 10875 10878 10880 10883 10887 10890 10893 10896 10900 10903 10905 10907 10909 10912 10914 10917 10920 10922 10925 10928 10931 10934 10936 10937 10938 10940 10943 10946 10948 10950 10952 10954 10956 10957 10958 10958 10959 10960 10960 10961 10960 10959 10958 10957 10956 10955 10954 10952 10950 10948 10947 10946 10945 10944 10943 10943 10942 10941 10941 10940 10939 10939 10938 10937 10935 10934 10934 10933 10933 10933 10934 10934 10934 10935 10937 10939 10940 10941 10944 10945 10947 10948 10950
10864 10866 10868 10870 10873 10876 10879 10882 10886 10888 10892 10896 10898 10900 10902 10905 10907 10911 10914 10916 10918 10920 10923 10927 10928 10930 10932 10934 10936 10939 10942 10945 10947 10949 10951 10953 10954 10956 10956 10957 10958 10959 10960 10960 10959 10958 10957 10956 10955 10954 10953 10951 10949 10948 10947 10946 10945 10944 10944 10943 10943 10942 10941 10940 10940 10939 10938 10936 10935 10935 10935 10934 10934 10935 10935 10936 10937 10938 10940 10942 10944 10946 10948 10949 10951 10953
10860 10862 10864 10866 10869 10871 10874 10878 10881 10884 10888 10891 10893 10896 10898 10901 10904 10907 10910 10911 10912 10915 10919 10922 10923 10925 10928 10930 10932 10935 10938 10941 10944 10946 10948 10950 10952 10954 10954 10955 10957 10958 10959 10959 10959 10959 10958 10957 10956 10954 10953 10951 10950 10949 10948 10947 10947 10945 10945 10944 10944 10943 10942 10941 10940 10940 10939 10937 10937 10936 10936 10936 10936 10936 10937 10938 10939 10940 10942 10944 10947 10949 10950 10952 10954 10956
10856 10858 10861 10863 10865 10867 10870 10873 10876 10879 10883 10886 10889 10893 10895 10898 10901 10904 10906 10907 10909 10913 10917 10918 10919 10922 10925 10927 10928 10931 10934 10937 10940 10943 10945 10947 10949 10951 10952 10953 10955 10957 10958 10959 10959 10958 10958 10957 10956 10955 10954 10952 10950 10949 10949 10948 10948 10947 10946 10946 10945 10944 10943 10942 10941 10940 10940 10939 10938 10938 10938 10937 10937 10938 10939 10940 10941 10942 10944 10947 10949 10951 10953 10954 10956 10958
10853 10855 10857 10859 10861 10863 10866 10868 10871 10875 10878 10882 10886 10889 10892 10895 10897 10900 10902 10903 10906 10910 10912 10914 10916 10919 10921 10922 10925 10927 10930 10933 10936 10939 10942 10944 10946 10948 10950 10951 10953 10955 10957 10958 10958 10958 10958 10957 10956 10955 10954 10953 10951 10950 10950 10949 10948 10948 10947 10947 10946 10945 10944 10943 10942 10941 10941 10940 10940 10939 10939 10939 10940 10940 10941 10942 10944 10945 10947 10949 10952 10954 10955 10957 10958 10960
10850 10852 10854 10856 10857 10859 10861 10864 10867 10870 10874 10878 10881 10884 10887 10890 10893 10896 10898 10900 10903 10905 10907 10910 10912 10914 10916 10918 10921 10924 10926 10929 10932 10935 10938 10941 10943 10945 10947 10949 10951 10953 10955 10956 10957 10957 10957 10957 10956 10956 10955 10953 10952 10951 10950 10950 10949 10948 10948 10948 10947 10946 10946 10944 10943 10942 10941 10941 10941 10941 10941 10941 10942 10943 10944 10945 10947 10948 10949 10951 10954 10956 10958 10959 10960 10963
10848 10849 10851 10852 10853 10855 10858 10860 10863 10866 10870 10873 10877 10880 10884 10887 10890 10892 10894 10896 10899 10901 10904 10906 10908 10910 10912 10915 10918 10920 10922 10925 10928 10931 10934 10937 10940 10942 10944 10947 10949 10951 10953 10955 10956 10957 10957 10957 10957 10956 10955 10954 10953 10951 10951 10950 10950 10949 10949 10948 10948 10948 10947 10946 10945 10943 10942 10942 10942 10943 10943 10944 10945 10946 10947 10948 10950 10951 10952 10954 10956 10958 10960 10961 10962 10964
10845 10846 10847 10848 10850 10852 10854 10857 10860 10862 10865 10869 10873 10876 10879 10882 10885 10888 10890 10893 10895 10898 10901 10902 10904 10907 10909 10912 10914 10916 10919 10922 10925 10928 10931 10933 10936 10939 10941 10944 10946 10948 10950 10953 10955 10956 10957 10957 10958 10957 10955 10954 10954 10952 10952 10951 10950 10950 10949 10949 10949 10949 10948 10947 10946 10945 10944 10943 10943 10944 10945 10946 10947 10948 10950 10951 10953 10954 10956 10957 10958 10960 10962 10963 10964 10966
10841 10842 10843 10845 10846 10848 10851 10853 10856 10858 10861 10864 10867 10870 10874 10877 10880 10883 10886 10889 10891 10894 10896 10898 10900 10903 10906 10908 10910 10913 10916 10919 10921 10924 10928 10930 10933 10935 10938 10941 10943 10946 10948 10951 10953 10956 10957 10957 10958 10957 10955 10955 10954 10953 10952 10952 10951 10951 10950 10949 10949 10949 10949 10948 10947 10946 10945 10945 10945 10946 10947 10948 10949 10951 10952 10954 10955 10957 10958 10960 10961 10962 10963 10965 10966 10968
10838 10839 10840 10841 10843 10845 10847 10850 10852 10855 10857 10860 10863 10866 10869 10872 10875 10878 10881 10884 10887 10889 10892 10893 10896 10899 10902 10904 10906 10909 10912 10915 10918 10921 10924 10927 10930 10932 10935 10938 10941 10943 10946 10948 10951 10954 10956 10956 10957 10957 10955 10955 10955 10953 10954 10954 10952 10951 10951 10950 10950 10950 10950 10950 10948 10947 10947 10946 10947 10948 10949 10951 10952 10953 10955 10956 10957 10959 10960 10962 10964 10964 10965 10967 10968 10970
10835 10836 10836 10838 10840 10842 10844 10846 10848 10851 10853 10856 10859 10862 10864 10867 10870 10873 10877 10880 10882 10885 10887 10889 10892 10895 10898 10900 10903 10905 10908 10910 10913 10916 10920 10923 10926 10929 10932 10935 10938 10941 10943 10946 10949 10952 10954 10955 10957 10958 10958 10957 10955 10954 10955 10955 10953 10952 10951 10951 10951 10951 10951 10951 10951 10950 10949 10949 10949 10950 10951 10953 10954 10956 10957 10959 10960 10961 10962 10964 10966 10967 10968 10969 10970 10973
10832 10833 10834 10835 10837 10839 10840 10842 10844 10847 10849 10852 10855 10857 10860 10863 10866 10869 10872 10875 10878 10881 10883 10886 10889 10893 10896 10898 10899 10901 10904 10906 10909 10912 10915 10919 10922 10925 10928 10932 10935 10938 10941 10943 10946 10949 10952 10954 10956 10958 10959 10959 10958 10957 10957 10956 10954 10953 10952 10951 10952 10952 10952 10952 10952 10952 10951 10951 10951 10952 10953 10955 10957 10958 10959 10961 10962 10964 10965 10966 10967 10969 10970 10971 10973 10975
10830 10830 10831 10833 10834 10836 10837 10839 10841 10843 10845 10848 10851 10853 10856 10858 10862 10864 10867 10871 10874 10877 10879 10882 10886 10889 10892 10894 10895 10897 10900 10902 10905 10908 10911 10915 10918 10921 10924 10928 10931 10935 10937 10940 10943 10947 10950 10952 10954 10955 10957 10958 10958 10958 10958 10956 10954 10953 10952 10952 10952 10952 10953 10953 10954 10954 10954 10954 10954 10954 10955 10956 10958 10960 10961 10963 10964 10966 10967 10968 10969 10971 10972 10974 10975 10977
10827 10828 10829 10830 10831 10832 10834 10835 10837 10839 10841 10844 10847 10849 10852 10855 10858 10860 10863 10866 10870 10873 10875 10878 10882 10885 10888 10889 10891 10893 10895 10898 10901 10904 10908 10911 10914 10917 10920 10924 10927 10930 10933 10936 10939 10943 10946 10949 10951 10953 10954 10955 10957 10958 10957 10956 10956 10956 10955 10953 10952 10952 10952 10953 10954 10955 10955 10956 10956 10956 10957 10958 10960 10962 10963 10965 10966 10967 10969 10970 10971 10973 10974 10976 10977 10979
10824 10824 10826 10827 10828 10829 10831 10832 10834 10836 10838 10840 10843 10845 10848 10851 10854 10856 10858 10861 10865 10868 10870 10873 10877 10881 10884 10885 10887 10888 10890 10893 10897 10900 10904 10907 10910 10913 10916 10919 10922 10926 10929 10932 10935 10939 10943 10945 10948 10950 10952 10954 10955 10955 10956 10956 10956 10956 10956 10956 10954 10953 10953 10953 10954 10955 10956 10957 10957 10958 10959 10960 10961 10963 10965 10966 10968 10969 10970 10972 10973 10974 10976 10977 10979 10980
10821 10821 10822 10824 10825 10826 10828 10829 10831 10832 10834 10836 10839 10841 10844 10847 10850 10852 10854 10856 10859 10862 10865 10869 10873 10876 10878 10880 10882 10884 10886 10890 10893 10897 10900 10903 10906 10909 10912 10915 10919 10922 10925 10929 10932 10935 10939 10942 10945 10947 10950 10951 10952 10952 10954 10955 10955 10955 10955 10956 10956 10956 10955 10954 10954 10955 10956 10957 10959 10959 10960 10961 10963 10965 10966 10968 10969 10971 10972 10973 10974 10976 10977 10979 10980 10982
10818 10818 10819 10820 10822 10823 10825 10826 10827 10829 10831 10833 10835 10838 10840 10843 10845 10847 10849 10852 10855 10857 10861 10865 10868 10870 10872 10875 10877 10880 10882 10885 10889 10892 10895 10898 10902 10905 10908 10911 10915 10918 10921 10925 10929 10932 10935 10938 10941 10944 10947 10949 10950 10951 10953 10953 10954 10955 10954 10955 10957 10957 10957 10956 10956 10956 10956 10957 10959 10960 10961 10963 10964 10966 10968 10969 10971 10972 10973 10974 10976 10977 10979 10980 10982 10983
10815 10816 10816 10817 10819 10821 10822 10823 10824 10825 10827 10829 10832 10834 10836 10839 10841 10843 10845 10847 10850 10853 10857 10861 10863 10864 10868 10871 10874 10876 10878 10881 10884 10887 10890 10894 10897 10901 10904 10907 10910 10914 10917 10921 10924 10928 10931 10934 10938 10940 10943 10946 10948 10950 10952 10952 10953 10953 10953 10955 10958 10959 10958 10957 10957 10957 10958 10958 10959 10960 10961 10963 10965 10966 10968 10970 10971 10973 10974 10976 10977 10978 10980 10981 10982 10983
10812 10813 10813 10813 10815 10817 10818 10820 10821 10822 10824 10826 10828 10830 10832 10834 10837 10839 10841 10843 10846 10848 10852 10856 10858 10860 10864 10867 10870 10872 10875 10877 10880 10883 10886 10889 10892 10896 10899 10902 10906 10909 10912 10916 10919 10923 10926 10930 10933 10936 10940 10943 10945 10948 10950 10951 10952 10952 10953 10955 10958 10959 10959 10958 10958 10958 10959 10960 10960 10961 10962 10963 10964 10966 10968 10970 10972 10973 10975 10976 10977 10979 10980 10981 10983 10984
10809 10810 10811 10811 10812 10813 10814 10816 10818 10819 10821 10823 10825 10826 10828 10831 10833 10835 10837 10839 10841 10844 10848 10852 10854 10856 10860 10863 10865 10868 10870 10872 10875 10878 10881 10884 10887 10891 10894 10897 10900 10904 10907 10911 10914 10918 10921 10925 10929 10932 10936 10939 10942 10945 10947 10949 10950 10952 10953 10955 10957 10957 10958 10959 10959 10959 10959 10960 10962 10963 10964 10964 10965 10966 10968 10970 10972 10974 10975 10977 10978 10979 10980 10982 10983 10984
10805 10807 10808 10808 10808 10810 10811 10813 10815 10816 10818 10820 10821 10823 10825 10827 10829 10831 10833 10835 10837 10840 10844 10847 10850 10852 10855 10858 10860 10863 10865 10868 10870 10873 10877 10879 10882 10885 10889 10892 10895 10898 10902 10905 10909 10913 10916 10920 10924 10928 10931 10935 10939 10941 10944 10946 10948 10950 10951 10953 10954 10956 10957 10958 10959 10959 10960 10961 10962 10963 10965 10966 10967 10968 10968 10970 10971 10973 10975 10977 10978 10979 10980 10982 10983 10984
10801 10802 10804 10804 10805 10807 10808 10809 10811 10812 10814 10816 10818 10820 10822 10823 10825 10827 10829 10831 10834 10837 10839 10843 10845 10848 10851 10853 10856 10858 10860 10862 10865 10868 10871 10874 10877 10880 10883 10887 10890 10893 10897 10900 10904 10908 10911 10915 10919 10923 10927 10931 10935 10938 10940 10943 10945 10947 10949 10951 10952 10954 10955 10956 10957 10958 10959 10960 10961 10963 10964 10966 10968 10969 10969 10970 10971 10972 10974 10976 10978 10979 10980 10981 10983 10984
10796 10797 10800 10801 10801 10802 10803 10804 10806 10807 10809 10812 10814 10816 10818 10820 10821 10823 10825 10827 10830 10833 10835 10838 10841 10844 10847 10849 10851 10854 10856 10858 10860 10863 10866 10869 10871 10875 10878 10882 10885 10889 10892 10896 10900 10903 10907 10911 10914 10918 10922 10926 10930 10934 10936 10939 10942 10944 10946 10948 10950 10951 10952 10953 10954 10956 10957 10958 10959 10961 10962 10964 10966 10969 10970 10970 10971 10972 10973 10975 10977 10978 10980 10981 10982 10983
10792 10793 10795 10797 10797 10798 10798 10800 10802 10803 10805 10807 10809 10811 10814 10815 10817 10819 10821 10824 10826 10829 10831 10834 10837 10840 10842 10844 10847 10849 10851 10853 10856 10859 10861 10864 10866 10870 10873 10877 10881 10885 10888 10892 10896 10899 10903 10906 10910 10913 10918 10922 10925 10929 10932 10935 10938 10940 10942 10945 10947 10949 10950 10951 10953 10954 10955 10956 10957 10958 10959 10961 10963 10966 10968 10969 10971 10971 10972 10973 10975 10977 10979 10980 10981 10983
10788 10789 10791 10792 10794 10794 10795 10797 10799 10800 10802 10804 10805 10807 10809 10811 10813 10815 10818 10821 10823 10825 10827 10830 10833 10836 10838 10840 10843 10845 10847 10849 10851 10854 10856 10859 10861 10864 10868 10872 10876 10879 10883 10887 10891 10895 10898 10902 10905 10908 10912 10917 10920 10924 10927 10930 10933 10936 10938 10941 10943 10945 10947 10948 10950 10952 10954 10954 10955 10956 10957 10959 10960 10962 10964 10967 10969 10970 10972 10973 10974 10976 10977 10979 10980 10982
10784 10786 10787 10788 10790 10791 10792 10793 10795 10796 10798 10800 10801 10803 10805 10807 10810 10812 10815 10817 10819 10822 10824 10826 10829 10832 10834 10835 10838 10841 10842 10844 10846 10848 10851 10854 10856 10859 10862 10866 10870 10874 10878 10882 10885 10889 10893 10896 10900 10903 10907 10911 10915 10919 10922 10926 10929 10932 10934 10937 10939 10941 10943 10945 10947 10949 10951 10952 10953 10955 10956 10957 10958 10959 10961 10962 10965 10967 10970 10972 10973 10974 10976 10977 10979 10980
10779 10781 10782 10784 10786 10787 10789 10790 10791 10793 10794 10796 10797 10799 10802 10804 10806 10809 10811 10814 10816 10818 10820 10822 10825 10828 10830 10831 10834 10836 10838 10840 10841 10844 10846 10849 10851 10854 10857 10861 10864 10868 10872 10876 10879 10883 10887 10890 10894 10898 10901 10905 10909 10913 10917 10920 10924 10927 10930 10933 10935 10937 10939 10941 10943 10945 10947 10949 10951 10953 10955 10956 10957 10958 10958 10959 10961 10963 10967 10969 10971 10973 10974 10975 10977 10978
10772 10774 10777 10780 10782 10784 10785 10786 10788 10789 10791 10793 10794 10796 10798 10801 10803 10805 10808 10810 10812 10814 10816 10819 10821 10823 10826 10828 10829 10831 10833 10835 10837 10839 10841 10844 10846 10849 10852 10855 10858 10862 10866 10870 10874 10878 10882 10885 10888 10892 10896 10900 10904 10908 10911 10915 10918 10921 10925 10928 10931 10933 10935 10937 10940 10941 10943 10945 10948 10950 10952 10953 10955 10956 10957 10958 10959 10960 10962 10965 10967 10970 10972 10973 10974 10975
10766 10769 10772 10775 10778 10779 10780 10781 10783 10785 10788 10790 10791 10793 10795 10797 10799 10801 10803 10806 10808 10810 10813 10815 10816 10818 10821 10823 10824 10826 10828 10830 10832 10834 10837 10839 10841 10844 10847 10850 10853 10856 10860 10864 10868 10872 10876 10879 10882 10886 10890 10893 10898 10902 10905 10909 10912 10916 10919 10922 10926 10928 10930 10933 10935 10938 10939 10941 10944 10946 10948 10950 10951 10953 10955 10956 10958 10959 10959 10961 10962 10965 10967 10969 10971 10973
10761 10764 10765 10768 10771 10772 10773 10776 10778 10781 10784 10786 10787 10789 10791 10792 10794 10796 10799 10801 10803 10806 10808 10810 10812 10814 10816 10817 10819 10821 10823 10825 10827 10829 10831 10833 10836 10838 10841 10844 10847 10850 10854 10858 10862 10866 10869 10873 10876 10880 10883 10887 10891 10895 10899 10903 10907 10910 10913 10917 10921 10924 10926 10929 10931 10934 10936 10938 10940 10943 10944 10946 10948 10949 10951 10953 10956 10957 10958 10959 10959 10960 10962 10964 10966 10968
10756 10758 10758 10760 10764 10765 10767 10770 10774 10778 10780 10780 10780 10783 10785 10787 10789 10791 10793 10796 10798 10801 10803 10805 10807 10809 10810 10812 10814 10816 10818 10820 10822 10823 10826 10828 10830 10832 10835 10837 10841 10844 10847 10851 10855 10859 10862 10866 10870 10873 10877 10881 10884 10889 10893 10897 10901 10904 10908 10912 10916 10919 10922 10924 10927 10930 10932 10935 10937 10939 10941 10942 10944 10946 10948 10950 10952 10954 10956 10957 10957 10958 10959 10960 10961 10962
10751 10753 10752 10753 10757 10759 10760 10764 10770 10774 10774 10773 10775 10778 10780 10782 10784 10786 10789 10791 10793 10795 10797 10800 10802 10803 10805 10807 10809 10811 10813 10814 10816 10817 10820 10822 10824 10826 10829 10831 10835 10838 10842 10845 10848 10852 10855 10859 10863 10866 10870 10874 10878 10882 10887 10890 10894 10899 10902 10906 10910 10914 10917 10919 10922 10925 10928 10930 10933 10935 10937 10938 10940 10942 10944 10946 10948 10951 10952 10954 10955 10957 10958 10958 10959 10959
10745 10747 10747 10748 10750 10752 10754 10758 10764 10766 10766 10768 10771 10773 10774 10777 10779 10781 10784 10786 10787 10790 10792 10794 10796 10797 10799 10801 10803 10805 10807 10808 10810 10811 10814 10817 10819 10821 10823 10826 10829 10833 10836 10839 10842 10845 10849 10852 10856 10860 10864 10868 10871 10875 10879 10884 10888 10892 10896 10900 10904 10908 10911 10914 10916 10919 10922 10925 10928 10931 10933 10934 10936 10938 10940 10942 10944 10946 10948 10949 10952 10954 10956 10957 10958 10958
10740 10742 10742 10743 10744 10745 10748 10751 10754 10757 10760 10763 10766 10767 10769 10772 10774 10776 10779 10780 10782 10785 10787 10788 10790 10791 10793 10796 10798 10800 10802 10803 10804 10806 10809 10811 10813 10815 10818 10820 10824 10827 10830 10833 10836 10839 10842 10846 10849 10853 10857 10861 10865 10868 10872 10877 10881 10885 10890 10894 10897 10901 10904 10907 10910 10914 10917 10920 10923 10926 10929 10930 10932 10934 10936 10939 10940 10942 10943 10945 10948 10950 10953 10954 10955 10956
10735 10736 10737 10737 10739 10741 10742 10743 10746 10750 10754 10756 10758 10760 10764 10766 10768 10771 10774 10775 10777 10779 10780 10782 10785 10786 10789 10792 10794 10796 10797 10798 10799 10801 10804 10806 10808 10810 10812 10815 10819 10822 10825 10827 10830 10833 10836 10839 10843 10846 10850 10854 10858 10861 10865 10869 10873 10878 10882 10886 10890 10894 10898 10901 10905 10908 10911 10915 10918 10921 10923 10926 10928 10930 10932 10935 10937 10938 10940 10942 10944 10946 10948 10949 10950 10951
10728 10730 10732 10732 10734 10736 10736 10736 10738 10742 10745 10747 10749 10754 10758 10761 10764 10767 10769 10770 10770 10772 10774 10777 10779 10781 10784 10786 10789 10791 10792 10792 10794 10797 10799 10800 10802 10804 10807 10810 10813 10816 10819 10821 10824 10826 10829 10832 10836 10839 10843 10847 10850 10854 10858 10861 10866 10870 10875 10879 10883 10887 10891 10895 10899 10902 10905 10908 10912 10915 10918 10921 10924 10926 10928 10931 10932 10934 10937 10939 10941 10942 10944 10945 10945 10946
10721 10724 10726 10727 10729 10729 10729 10729 10731 10733 10736 10739 10743 10747 10752 10756 10759 10762 10764 10763 10763 10766 10769 10771 10772 10775 10778 10780 10783 10785 10786 10787 10789 10792 10794 10795 10796 10798 10800 10804 10807 10810 10812 10815 10817 10819 10822 10825 10828 10832 10835 10839 10843 10847 10850 10854 10858 10863 10867 10872 10876 10880 10884 10888 10892 10895 10898 10902 10905 10909 10912 10916 10918 10921 10924 10926 10929 10932 10935 10937 10938 10939 10940 10940 10941 10942
10714 10716 10719 10721 10722 10720 10720 10723 10725 10724 10726 10731 10736 10740 10746 10751 10754 10755 10755 10756 10759 10762 10763 10764 10766 10769 10772 10774 10776 10778 10780 10782 10784 10786 10788 10788 10790 10791 10793 10796 10800 10802 10805 10807 10810 10812 10815 10818 10821 10824 10827 10831 10835 10839 10843 10847 10851 10855 10860 10864 10869 10873 10877 10881 10884 10888 10892 10895 10899 10903 10906 10910 10913 10916 10919 10922 10926 10930 10933 10935 10935 10935 10935 10936 10937 10938
10707 10709 10711 10714 10714 10711 10711 10715 10716 10717 10719 10723 10727 10733 10740 10744 10746 10746 10749 10753 10756 10756 10757 10758 10761 10764 10766 10768 10770 10772 10774 10776 10778 10780 10781 10782 10783 10785 10787 10789 10792 10795 10798 10800 10802 10804 10807 10810 10813 10816 10819 10823 10827 10831 10835 10839 10844 10848 10852 10857 10861 10865 10869 10873 10877 10881 10885 10889 10893 10896 10900 10904 10907 10911 10914 10917 10921 10925 10927 10928 10929 10930 10931 10932 10933 10935
10700 10701 10702 10705 10706 10704 10703 10705 10708 10711 10713 10713 10717 10726 10733 10737 10738 10742 10746 10750 10751 10751 10752 10754 10756 10758 10760 10762 10764 10765 10767 10770 10772 10773 10774 10776 10778 10779 10781 10783 10785 10788 10790 10792 10794 10797 10799 10802 10805 10808 10811 10815 10819 10822 10826 10831 10836 10840 10845 10850 10854 10858 10862 10866 10870 10874 10879 10883 10887 10890 10894 10898 10901 10905 10908 10911 10915 10918 10920 10921 10923 10925 10927 10928 10929 10931
10692 10693 10693 10696 10697 10697 10696 10697 10700 10703 10704 10705 10711 10720 10726 10729 10733 10737 10741 10743 10745 10746 10748 10749 10751 10753 10755 10756 10758 10760 10762 10764 10766 10767 10768 10770 10772 10774 10775 10777 10779 10781 10784 10786 10788 10790 10792 10794 10797 10800 10803 10807 10810 10814 10818 10823 10828 10833 10837 10842 10846 10850 10854 10859 10863 10868 10872 10876 10880 10884 10888 10892 10895 10899 10902 10905 10909 10911 10912 10914 10918 10921 10923 10923 10924 10925
10684 10684 10685 10687 10688 10688 10689 10690 10692 10694 10696 10700 10707 10713 10716 10721 10727 10730 10734 10738 10741 10742 10743 10745 10747 10748 10750 10751 10752 10754 10757 10759 10760 10762 10764 10766 10767 10769 10770 10772 10774 10776 10778 10780 10781 10783 10785 10788 10790 10792 10795 10798 10802 10806 10811 10815 10820 10825 10830 10834 10839 10843 10847 10851 10856 10861 10865 10869 10873 10877 10881 10885 10889 10892 10895 10899 10901 10903 10905 10908 10912 10916 10917 10918 10919 10919
10677 10676 10676 10678 10679 10680 10681 10683 10684 10686 10690 10695 10700 10704 10709 10715 10720 10724 10728 10733 10736 10737 10739 10740 10742 10743 10745 10746 10747 10749 10752 10754 10755 10757 10759 10761 10763 10764 10766 10767 10769 10770 10772 10773 10775 10777 10779 10781 10783 10785 10788 10791 10795 10799 10803 10807 10812 10816 10821 10827 10831 10835 10839 10843 10847 10852 10857 10861 10866 10870 10874 10878 10881 10884 10888 10891 10894 10896 10899 10902 10906 10909 10910 10910 10912 10912
10669 10669 10668 10670 10671 10671 10674 10677 10678 10681 10685 10690 10693 10698 10703 10709 10714 10718 10723 10727 10730 10733 10734 10735 10737 10738 10740 10741 10742 10745 10748 10750 10751 10754 10756 10757 10759 10760 10762 10763 10764 10765 10766 10767 10769 10771 10773 10775 10777 10779 10781 10784 10787 10791 10795 10799 10804 10808 10813 10818 10822 10826 10830 10834 10838 10843 10849 10854 10858 10862 10866 10870 10873 10876 10881 10884 10887 10890 10893 10895 10898 10900 10902 10903 10905 10906
10663 10661 10661 10663 10664 10664 10667 10669 10671 10675 10679 10683 10687 10691 10697 10703 10708 10713 10717 10721 10725 10728 10729 10730 10732 10733 10734 10736 10738 10740 10743 10745 10748 10750 10752 10754 10756 10757 10758 10759 10759 10760 10761 10762 10764 10766 10767 10769 10770 10773 10775 10778 10780 10783 10787 10792 10796 10800 10804 10808 10813 10817 10821 10825 10830 10835 10841 10846 10850 10854 10858 10862 10865 10870 10874 10877 10880 10883 10886 10888 10890 10893 10895 10897 10899 10901
10655 10654 10655 10656 10657 10659 10660 10661 10665 10669 10674 10677 10682 10687 10692 10697 10702 10707 10711 10716 10720 10722 10723 10725 10726 10727 10729 10731 10734 10736 10739 10741 10744 10746 10749 10751 10752 10754 10755 10756 10756 10757 10758 10759 10760 10761 10763 10764 10765 10767 10770 10772 10774 10777 10780 10784 10788 10792 10796 10799 10804 10808 10812 10817 10822 10827 10832 10837 10841 10846 10850 10854 10859 10863 10866 10869 10872 10875 10877 10880 10883 10886 10888 10889 10891 10894
10647 10648 10649 10650 10652 10653 10654 10657 10661 10665 10669 10673 10678 10682 10687 10692 10696 10700 10705 10709 10713 10716 10718 10719 10721 10723 10725 10727 10730 10733 10735 10738 10740 10743 10745 10747 10749 10751 10752 10753 10754 10754 10755 10756 10757 10758 10759 10760 10761 10763 10765 10767 10769 10772 10775 10778 10781 10784 10788 10791 10795 10800 10804 10809 10814 10819 10824 10829 10833 10837 10842 10847 10851 10855 10857 10860 10863 10866 10869 10873 10877 10881 10883 10884 10884 10888
10640 10641 10642 10644 10645 10646 10648 10652 10656 10659 10663 10668 10672 10676 10681 10686 10690 10694 10699 10703 10707 10710 10713 10715 10716 10718 10720 10723 10726 10729 10731 10734 10737 10740 10742 10744 10746 10748 10749 10751 10752 10752 10753 10754 10755 10755 10756 10757 10758 10759 10761 10762 10764 10767 10769 10771 10774 10777 10780 10783 10787 10791 10795 10800 10805 10810 10815 10819 10823 10828 10833 10838 10842 10845 10848 10851 10855 10859 10864 10868 10872 10875 10876 10876 10877 10880